Погода в Благовещенке

Россия / Новосибирская область     53°55′36″N   76°56′31″E
темп.,
°C
ветер,
м/с
пор.,
м/с
влажн.,
%
обл.,
%
осадки,
мм/ч
давл.,
гПа
погр.,
м
25 мая, ср
ср2501:00+19в3347100 0.0 101724
04:00+17св33530 0.0 101721
07:00+17св36572 0.0 1017107
10:00+23св57384 0.0 1017659
13:00+27всв67270 0.0 10161892
16:00+28всв67250 0.0 10152221
19:00+27всв77290 0.0 10152022
22:00+21всв45472 0.0 101566
26 мая, чт
чт2601:00+19всв455359 0.0 101569
04:00+17всв346017 0.0 101555
07:00+17всв48615 0.0 1015167
10:00+24в694087 0.0 1015698
13:00+27в793276 0.0 10142255
16:00+29в772972 0.0 10122584
19:00+28в66307 0.0 10122548
22:00+22всв512490 0.0 1011265
27 мая, пт
пт2701:00+19в410570 0.0 1011189
04:00+17в512550 0.0 1010226
07:00+16вюв510583 0.0 1010241
10:00+22вюв674050 0.0 1010626
13:00+26вюв66345 0.3 10081120
16:00+30юв46282 0.0 10072373
19:00+25з584628 0.2 1007249
22:00+23сз6104533 0.0 1009498
28 мая, сб
сб2801:00+17сз7116921 0.0 1011437
04:00+14сз4882100 0.0 1011254
07:00+13ссз4680100 0.0 1012356
10:00+16сз5666100 0.0 1013796
13:00+20зсз4451100 0.0 10131431
16:00+21зсз5543100 0.0 10121553
19:00+20сз5545100 0.0 10131293
22:00+17ссз3440100 0.0 101363
29 мая, вс
вс2901:00+14ссз3648100 0.0 101492
04:00+13ссз4865100 0.0 1013213
07:00+13с3769100 0.1 1014288
10:00+13сз2564100 0.3 1013461
13:00+13зюз1273100 1.3 1013267
16:00+14юз2374100 0.8 1012406
19:00+15зсз2369100 0.9 1011135
22:00+15сз2373100 0.0 101165